{"data":{"norad_id":57885,"epoch":"2026-05-25T04:57:53.889408Z","epoch_age_seconds":54349,"freshness":"FRESH","line1":"1 57885U 23144X   26145.20687372  .00001988  00000+0  81751-4 0  9991","line2":"2 57885  42.9991 212.7376 0001431 274.0469  86.0219 15.27577782149289","mean_motion":15.27577782,"eccentricity":0.0001431,"inclination_deg":42.9991,"raan_deg":212.7376,"arg_perigee_deg":274.0469,"mean_anomaly_deg":86.0219,"bstar":8.1751e-5,"rev_number":14928,"period_min":94.266885586321,"perigee_km":482.07390085687,"apogee_km":484.03757421835,"semimajor_km":6861.1927375376,"source":"CELESTRAK","updated_at":"2026-05-25T13:38:18.450853Z"}}